404 - Page Not Found

404

Error - Page Not Found


Please check the URL.

Otherwise, click here to be redirected to the homepage.

  • Currently

    Reported at Minneapolis, Minneapolis-St. Paul International Airport, MN
    1:53 PM CST FRI FEB 23 2018
  • 32°F0°C
  • Partly Cloudy
    Partly Cloudy
  • Feels Like:25°F-4°CDew Point:21°F-6°CHumidity:64% Winds:SSW 9 mph 14 kph
    Pressure:30.18 in1022 hPaVisibility:10.00 miles16090.00 meters
Time Weather Temp Dew Point
Humidity Winds Visibility Pressure Precipitation
1 hr 24 hr
Wednesday, February 14
00:53 00:53 Mostly Clear Mostly Clear 35°F2°C 29°F-2°C 78% WSW 12 mphWSW 19 kph 10.0 miles16.1 km 29.65 in1004 hPa 0.00 in0.00 mm --
23:53 23:53 Clear Clear 35°F2°C 29°F-2°C 78% WSW 10 mphWSW 17 kph 10.0 miles16.1 km 29.62 in1003 hPa 0.00 in0.00 mm --
22:53 22:53 Clear Clear 36°F2°C 30°F-1°C 79% WSW 8 mphWSW 13 kph 10.0 miles16.1 km 29.62 in1003 hPa 0.00 in0.00 mm --
21:53 21:53 Clear Clear 37°F3°C 30°F-1°C 76% SW 10 mphSW 17 kph 10.0 miles16.1 km 29.59 in1002 hPa 0.00 in0.00 mm --
20:53 20:53 Clear Clear 38°F3°C 30°F-1°C 73% SW 12 mphSW 19 kph 10.0 miles16.1 km 29.59 in1002 hPa 0.00 in0.00 mm --
19:53 19:53 Mostly Clear Mostly Clear 38°F3°C 30°F-1°C 73% SSW 6 mphSSW 9 kph 10.0 miles16.1 km 29.59 in1002 hPa 0.00 in0.00 mm --
18:53 18:53 Mostly Clear Mostly Clear 40°F4°C 30°F-1°C 68% SSW 6 mphSSW 9 kph 10.0 miles16.1 km 29.62 in1003 hPa 0.00 in0.00 mm --
17:53 17:53 Sunny Sunny 41°F5°C 30°F-1°C 65% SSW 9 mphSSW 15 kph 10.0 miles16.1 km 29.62 in1003 hPa 0.00 in0.00 mm --
16:53 16:53 Sunny Sunny 42°F6°C 29°F-2°C 60% SSW 14 mphSSW 22 kph 10.0 miles16.1 km 29.65 in1004 hPa 0.00 in0.00 mm --
15:53 15:53 Sunny Sunny 42°F6°C 29°F-2°C 60% SSE 10 mphSSE 17 kph 10.0 miles16.1 km 29.65 in1004 hPa 0.00 in0.00 mm --
14:53 14:53 Sunny Sunny 40°F4°C 28°F-2°C 63% SSE 9 mphSSE 15 kph 10.0 miles16.1 km 29.71 in1006 hPa 0.00 in0.00 mm --
13:53 13:53 Sunny Sunny 39°F4°C 26°F-3°C 60% S 8 mphS 13 kph 10.0 miles16.1 km 29.74 in1007 hPa 0.00 in0.00 mm --
12:53 12:53 Sunny Sunny 38°F3°C 26°F-3°C 62% SSW 7 mphSSW 11 kph 10.0 miles16.1 km 29.77 in1008 hPa 0.00 in0.00 mm --
11:53 11:53 Sunny Sunny 33°F1°C 24°F-4°C 70% S 5 mphS 7 kph 10.0 miles16.1 km 29.8 in1009 hPa 0.00 in0.00 mm --
10:53 10:53 Sunny Sunny 28°F-2°C 22°F-6°C 78% SW 5 mphSW 7 kph 8.0 miles12.9 km 29.85 in1011 hPa 0.00 in0.00 mm --
09:53 09:53 Sunny Sunny 22°F-6°C 20°F-7°C 92% S 7 mphS 11 kph 9.0 miles14.5 km 29.88 in1012 hPa 0.00 in0.00 mm --
08:53 08:53 Sunny Sunny 18°F-8°C 17°F-8°C 96% SE 5 mphSE 7 kph 9.0 miles14.5 km 29.88 in1012 hPa 0.00 in0.00 mm --
07:53 07:53 Clear With Mist And Fog Clear With Mist And Fog 21°F-6°C 18°F-8°C 88% S 7 mphS 11 kph 6.0 miles9.7 km 29.88 in1012 hPa 0.00 in0.00 mm --
06:53 06:53 Clear With Mist And Fog Clear With Mist And Fog 21°F-6°C 19°F-7°C 92% S 6 mphS 9 kph 4.0 miles6.4 km 29.91 in1013 hPa 0.00 in0.00 mm --
05:53 05:53 Clear With Mist And Fog Clear With Mist And Fog 22°F-6°C 19°F-7°C 89% S 7 mphS 11 kph 5.0 miles8.0 km 29.91 in1013 hPa 0.00 in0.00 mm --
04:53 04:53 Clear Clear 21°F-6°C 19°F-7°C 92% CalmCalm 8.0 miles12.9 km 29.94 in1014 hPa 0.00 in0.00 mm --
03:53 03:53 Clear Clear 23°F-5°C 20°F-7°C 88% SSW 5 mphSSW 7 kph 7.0 miles11.3 km 29.97 in1015 hPa 0.00 in0.00 mm --
02:53 02:53 Clear Clear 24°F-4°C 21°F-6°C 88% SSW 6 mphSSW 9 kph 8.0 miles12.9 km 29.97 in1015 hPa 0.00 in0.00 mm --
01:53 01:53 Clear Clear 24°F-4°C 20°F-7°C 84% SSW 8 mphSSW 13 kph 7.0 miles11.3 km 30 in1016 hPa 0.00 in0.00 mm --
404 - Page Not Found

404

Error - Page Not Found


Please check the URL.

Otherwise, click here to be redirected to the homepage.